| time (UTC) | temp F | wind direction | speed MPH | gust MPH | rain 1hr in | rain 24hr in | rain mn in | humidity % | barometer mb |
| 20260903053022 | 58 | 117 | 0.0 | 1.0 | 0.00 | 0.00 | 0.00 | 1 | 1005.2 |
| 20260903052526 | 58 | 222 | 0.0 | 2.0 | 0.00 | 0.00 | 0.00 | 1 | 1005.2 |
| 20260903052022 | 58 | 152 | 0.0 | 2.0 | 0.00 | 0.00 | 0.00 | 1 | 1005.2 |
| 20260903051524 | 58 | 177 | 0.0 | 5.0 | 0.00 | 0.00 | 0.00 | 1 | 1005.2 |
| 20260903051003 | 58 | 219 | 1.0 | 5.0 | 0.00 | 0.00 | 0.00 | 1 | 1005.2 |
| 20260903050502 | 58 | 222 | 0.0 | 5.0 | 0.00 | 0.00 | 0.00 | 1 | 1005.2 |
| 20260903050101 | 58 | 163 | 0.0 | 5.0 | 0.00 | 0.00 | 0.00 | 1 | 1005.2 |
| 20260903045559 | 58 | 207 | 0.0 | 2.0 | 0.00 | 0.00 | 0.00 | 1 | 1005.2 |
| 20260903045058 | 58 | 108 | 0.0 | 3.0 | 0.00 | 0.00 | 0.00 | 1 | 1005.2 |
| 20260903044558 | 58 | 200 | 0.0 | 3.0 | 0.00 | 0.00 | 0.00 | 1 | 1005.1 |
| 20260903044037 | 58 | 88 | 0.0 | 5.0 | 0.00 | 0.00 | 0.00 | 1 | 1005.1 |
| 20260903043536 | 58 | 200 | 0.0 | 6.0 | 0.00 | 0.00 | 0.00 | 1 | 1005.1 |
| 20260903043036 | 58 | 75 | 0.0 | 6.0 | 0.00 | 0.00 | 0.00 | 1 | 1005.0 |
| 20260903042532 | 59 | 228 | 0.0 | 5.0 | 0.00 | 0.00 | 0.00 | 1 | 1005.0 |
| 20260903042031 | 59 | 212 | 0.0 | 3.0 | 0.00 | 0.00 | 0.00 | 1 | 1004.9 |
| 20260903041534 | 59 | 229 | 1.0 | 3.0 | 0.00 | 0.00 | 0.00 | 1 | 1004.9 |
| 20260903041015 | 59 | 101 | 0.0 | 4.0 | 0.00 | 0.00 | 0.00 | 1 | 1004.9 |
| 20260903040509 | 59 | 172 | 0.0 | 3.0 | 0.00 | 0.00 | 0.00 | 1 | 1004.8 |
| 20260903040012 | 58 | 221 | 0.0 | 3.0 | 0.00 | 0.00 | 0.00 | 1 | 1004.8 |
| 20260903035509 | 58 | 212 | 0.0 | 6.0 | 0.00 | 0.00 | 0.00 | 1 | 1004.8 |
| 20260903035005 | 58 | 218 | 0.0 | 6.0 | 0.00 | 0.00 | 0.00 | 1 | 1004.8 |
| 20260903034503 | 58 | 167 | 0.0 | 4.0 | 0.00 | 0.00 | 0.00 | 1 | 1004.7 |
| 20260903034044 | 58 | 194 | 0.0 | 4.0 | 0.00 | 0.00 | 0.00 | 1 | 1004.7 |
| 20260903033546 | 58 | 107 | 0.0 | 4.0 | 0.00 | 0.00 | 0.00 | 1 | 1004.6 |
| 20260903033044 | 58 | 49 | 0.0 | 4.0 | 0.00 | 0.00 | 0.00 | 1 | 1004.6 |
| 20260903032539 | 57 | 233 | 0.0 | 6.0 | 0.00 | 0.00 | 0.00 | 1 | 1004.5 |
| 20260903032037 | 57 | 207 | 1.0 | 6.0 | 0.00 | 0.00 | 0.00 | 1 | 1004.5 |
| 20260903031541 | 57 | 215 | 0.0 | 5.0 | 0.00 | 0.00 | 0.00 | 1 | 1004.5 |
| 20260903031021 | 56 | 165 | 0.0 | 5.0 | 0.00 | 0.00 | 0.00 | 1 | 1004.5 |
| 20260903030516 | 56 | 222 | 0.0 | 5.0 | 0.00 | 0.00 | 0.00 | 1 | 1004.5 |
| 20260903030020 | 57 | 200 | 1.0 | 9.0 | 0.00 | 0.00 | 0.00 | 1 | 1004.5 |
| 20260903025512 | 58 | 214 | 3.0 | 9.0 | 0.00 | 0.00 | 0.00 | 1 | 1004.6 |
| 20260903025012 | 59 | 208 | 1.0 | 3.0 | 0.00 | 0.00 | 0.00 | 1 | 1004.4 |
| 20260903024510 | 58 | 222 | 0.0 | 4.0 | 0.00 | 0.00 | 0.00 | 1 | 1004.3 |
| 20260903024051 | 58 | 212 | 1.0 | 4.0 | 0.00 | 0.00 | 0.00 | 1 | 1004.3 |
| 20260903023549 | 58 | 208 | 1.0 | 4.0 | 0.00 | 0.00 | 0.00 | 1 | 1004.4 |
| 20260903023049 | 58 | 233 | 0.0 | 3.0 | 0.00 | 0.00 | 0.00 | 1 | 1004.3 |
| 20260903022548 | 58 | 225 | 0.0 | 3.0 | 0.00 | 0.00 | 0.00 | 1 | 1004.3 |
| 20260903022045 | 58 | 225 | 0.0 | 3.0 | 0.00 | 0.00 | 0.00 | 1 | 1004.4 |
| 20260903021549 | 58 | 208 | 0.0 | 5.0 | 0.00 | 0.00 | 0.00 | 1 | 1004.4 |
| 20260903021025 | 59 | 245 | 2.0 | 5.0 | 0.00 | 0.00 | 0.00 | 1 | 1004.3 |
| 20260903020524 | 59 | 219 | 0.0 | 3.0 | 0.00 | 0.00 | 0.00 | 1 | 1004.3 |
| 20260903020027 | 59 | 229 | 0.0 | 5.0 | 0.00 | 0.00 | 0.00 | 1 | 1004.3 |
| 20260903015521 | 59 | 203 | 1.0 | 5.0 | 0.00 | 0.00 | 0.00 | 1 | 1004.2 |
| 20260903015019 | 59 | 191 | 2.0 | 5.0 | 0.00 | 0.00 | 0.00 | 1 | 1004.2 |
| 20260903014518 | 58 | 173 | 1.0 | 5.0 | 0.00 | 0.00 | 0.00 | 1 | 1004.2 |
| 20260903014117 | 58 | 224 | 1.0 | 7.0 | 0.00 | 0.00 | 0.00 | 1 | 1004.2 |
| 20260903013601 | 58 | 222 | 1.0 | 8.0 | 0.00 | 0.00 | 0.00 | 1 | 1004.1 |
| 20260903013102 | 59 | 233 | 3.0 | 8.0 | 0.00 | 0.00 | 0.00 | 1 | 1004.1 |
| 20260903012555 | 59 | 211 | 1.0 | 7.0 | 0.00 | 0.00 | 0.00 | 1 | 1004.1 |
| 20260903012053 | 58 | 74 | 0.0 | 4.0 | 0.00 | 0.00 | 0.00 | 1 | 1004.1 |
| 20260903011605 | 58 | 231 | 0.0 | 3.0 | 0.00 | 0.00 | 0.00 | 1 | 1004.1 |
| 20260903011051 | 58 | 212 | 0.0 | 6.0 | 0.00 | 0.00 | 0.00 | 1 | 1004.1 |
| 20260903010532 | 59 | 236 | 1.0 | 6.0 | 0.00 | 0.00 | 0.00 | 1 | 1004.1 |
| 20260903010033 | 59 | 181 | 0.0 | 6.0 | 0.00 | 0.00 | 0.00 | 1 | 1004.1 |
| 20260903005530 | 60 | 194 | 0.0 | 8.0 | 0.00 | 0.00 | 0.00 | 1 | 1004.1 |
| 20260903005026 | 61 | 218 | 1.0 | 8.0 | 0.00 | 0.00 | 0.00 | 1 | 1004.1 |
| 20260903004529 | 61 | 227 | 0.0 | 6.0 | 0.00 | 0.00 | 0.00 | 1 | 1004.1 |
| 20260903004024 | 61 | 210 | 1.0 | 6.0 | 0.00 | 0.00 | 0.00 | 1 | 1004.1 |
| 20260903003507 | 61 | 252 | 0.0 | 7.0 | 0.00 | 0.00 | 0.00 | 1 | 1004.0 |
| 20260903003005 | 61 | 238 | 1.0 | 7.0 | 0.00 | 0.00 | 0.00 | 1 | 1004.1 |
| 20260903002505 | 61 | 259 | 2.0 | 6.0 | 0.00 | 0.00 | 0.00 | 1 | 1003.9 |
| 20260903002000 | 60 | 232 | 1.0 | 6.0 | 0.00 | 0.00 | 0.00 | 1 | 1003.9 |
| 20260903001559 | 60 | 217 | 2.0 | 7.0 | 0.00 | 0.00 | 0.00 | 1 | 1003.9 |
| 20260903001100 | 60 | 240 | 0.0 | 5.0 | 0.00 | 0.00 | 0.00 | 1 | 1003.8 |
| 20260903000539 | 60 | 223 | 1.0 | 5.0 | 0.00 | 0.00 | 0.00 | 1 | 1003.7 |
| 20260903000049 | 60 | 221 | 1.0 | 4.0 | 0.00 | 0.00 | 0.00 | 1 | 1003.6 |
| 20260902235537 | 60 | 222 | 1.0 | 4.0 | 0.00 | 0.00 | 0.00 | 1 | 1003.5 |
| 20260902235034 | 60 | 221 | 1.0 | 7.0 | 0.00 | 0.00 | 0.00 | 1 | 1003.5 |
| 20260902234533 | 60 | 221 | 2.0 | 8.0 | 0.00 | 0.00 | 0.00 | 1 | 1003.3 |
| 20260902234032 | 60 | 270 | 3.0 | 8.0 | 0.00 | 0.00 | 0.00 | 1 | 1003.2 |
| 20260902233513 | 60 | 205 | 1.0 | 6.0 | 0.00 | 0.00 | 0.00 | 1 | 1003.1 |
| 20260902233013 | 60 | 291 | 1.0 | 7.0 | 0.00 | 0.00 | 0.00 | 1 | 1002.9 |
| 20260902232511 | 60 | 194 | 2.0 | 6.0 | 0.00 | 0.00 | 0.00 | 1 | 1002.8 |
| 20260902232009 | 60 | 117 | 1.0 | 7.0 | 0.00 | 0.00 | 0.00 | 1 | 1002.5 |
| 20260902231508 | 60 | 229 | 0.0 | 6.0 | 0.00 | 0.00 | 0.00 | 1 | 1002.4 |
| 20260902231004 | 60 | 238 | 2.0 | 6.0 | 0.00 | 0.00 | 0.00 | 1 | 1002.2 |
| 20260902230549 | 60 | 224 | 1.0 | 8.0 | 0.00 | 0.00 | 0.00 | 1 | 1002.0 |
| 20260902230101 | 60 | 221 | 5.0 | 9.0 | 0.00 | 0.00 | 0.00 | 1 | 1001.9 |
| 20260902225546 | 60 | 233 | 3.0 | 5.0 | 0.00 | 0.00 | 0.00 | 1 | 1001.7 |
| 20260902225041 | 60 | 229 | 1.0 | 6.0 | 0.00 | 0.00 | 0.00 | 1 | 1001.6 |
| 20260902224540 | 59 | 231 | 1.0 | 8.0 | 0.00 | 0.00 | 0.00 | 1 | 1001.4 |
| 20260902224039 | 59 | 227 | 1.0 | 8.0 | 0.00 | 0.00 | 0.00 | 1 | 1001.2 |
| 20260902223521 | 59 | 223 | 2.0 | 8.0 | 0.00 | 0.00 | 0.00 | 1 | 1001.1 |
| 20260902223023 | 59 | 229 | 3.0 | 8.0 | 0.00 | 0.00 | 0.00 | 1 | 1001.0 |
| 20260902222519 | 59 | 233 | 4.0 | 8.0 | 0.00 | 0.00 | 0.00 | 1 | 1000.9 |
| 20260902222017 | 58 | 224 | 3.0 | 9.0 | 0.00 | 0.00 | 0.00 | 1 | 1000.7 |
| 20260902221518 | 58 | 238 | 4.0 | 9.0 | 0.00 | 0.00 | 0.00 | 1 | 1000.6 |
| 20260902221015 | 58 | 221 | 2.0 | 8.0 | 0.00 | 0.00 | 0.00 | 1 | 1000.3 |
| 20260902220556 | 58 | 236 | 2.0 | 8.0 | 0.00 | 0.00 | 0.00 | 1 | 1000.2 |
| 20260902220100 | 58 | 215 | 1.0 | 8.0 | 0.00 | 0.00 | 0.00 | 1 | 1000.0 |
| 20260902215554 | 58 | 58 | 0.0 | 4.0 | 0.00 | 0.00 | 0.00 | 1 | 999.8 |
| 20260902215051 | 58 | 77 | 0.0 | 4.0 | 0.00 | 0.00 | 0.00 | 1 | 999.7 |
| 20260902214604 | 58 | 94 | 0.0 | 3.0 | 0.00 | 0.00 | 0.00 | 1 | 999.6 |
| 20260902214049 | 58 | 70 | 0.0 | 3.0 | 0.00 | 0.00 | 0.00 | 1 | 999.7 |
| 20260902213528 | 58 | 98 | 0.0 | 3.0 | 0.00 | 0.00 | 0.00 | 1 | 999.8 |
| 20260902213028 | 58 | 70 | 0.0 | 3.0 | 0.00 | 0.00 | 0.00 | 1 | 999.8 |
| 20260902212527 | 59 | 72 | 0.0 | 4.0 | 0.00 | 0.00 | 0.00 | 1 | 999.7 |
| 20260902212025 | 58 | 51 | 1.0 | 4.0 | 0.00 | 0.00 | 0.00 | 1 | 999.8 |
| 20260902211522 | 58 | 356 | 0.0 | 4.0 | 0.00 | 0.00 | 0.00 | 1 | 999.8 |
| 20260902211022 | 58 | 36 | 0.0 | 4.0 | 0.00 | 0.00 | 0.00 | 1 | 999.9 |
| 20260902210503 | 58 | 79 | 1.0 | 4.0 | 0.00 | 0.00 | 0.00 | 1 | 999.9 |
| 20260902210006 | 58 | 86 | 0.0 | 7.0 | 0.00 | 0.00 | 0.00 | 1 | 999.9 |
| 20260902205600 | 58 | 52 | 0.0 | 7.0 | 0.00 | 0.00 | 0.00 | 1 | 1000.1 |
| 20260902205058 | 58 | 49 | 1.0 | 7.0 | 0.00 | 0.00 | 0.00 | 1 | 1000.1 |
| 20260902204558 | 58 | 99 | 2.0 | 7.0 | 0.00 | 0.00 | 0.00 | 1 | 1000.0 |
| 20260902204056 | 58 | 64 | 1.0 | 5.0 | 0.00 | 0.00 | 0.00 | 1 | 1000.1 |
| 20260902203536 | 59 | 25 | 1.0 | 5.0 | 0.00 | 0.00 | 0.00 | 1 | 1000.2 |
| 20260902203039 | 59 | 74 | 1.0 | 4.0 | 0.00 | 0.00 | 0.00 | 1 | 1000.3 |
| 20260902202536 | 59 | 65 | 1.0 | 4.0 | 0.00 | 0.00 | 0.00 | 1 | 1000.3 |
| 20260902202034 | 59 | 85 | 1.0 | 4.0 | 0.00 | 0.00 | 0.00 | 1 | 1000.3 |
| 20260902201538 | 59 | 36 | 1.0 | 3.0 | 0.00 | 0.00 | 0.00 | 1 | 1000.5 |
| 20260902201030 | 59 | 59 | 1.0 | 4.0 | 0.00 | 0.00 | 0.00 | 1 | 1000.6 |
| 20260902200511 | 59 | 63 | 0.0 | 4.0 | 0.00 | 0.00 | 0.00 | 1 | 1000.7 |
| 20260902200009 | 59 | 41 | 1.0 | 3.0 | 0.00 | 0.00 | 0.00 | 1 | 1000.8 |
| 20260902195507 | 59 | 60 | 0.0 | 3.0 | 0.00 | 0.00 | 0.00 | 1 | 1000.9 |
| 20260902195006 | 59 | 75 | 0.0 | 3.0 | 0.00 | 0.00 | 0.00 | 1 | 1001.0 |
| 20260902194505 | 59 | 56 | 1.0 | 3.0 | 0.00 | 0.00 | 0.00 | 1 | 1001.1 |
| 20260902194004 | 59 | 70 | 0.0 | 4.0 | 0.00 | 0.00 | 0.00 | 1 | 1001.1 |
| 20260902193602 | 59 | 54 | 1.0 | 4.0 | 0.00 | 0.00 | 0.00 | 1 | 1001.2 |
| 20260902193047 | 59 | 54 | 0.0 | 3.0 | 0.00 | 0.00 | 0.00 | 1 | 1001.1 |
| 20260902192544 | 59 | 44 | 0.0 | 3.0 | 0.00 | 0.00 | 0.00 | 1 | 1001.1 |
| 20260902192041 | 59 | 58 | 1.0 | 3.0 | 0.00 | 0.00 | 0.00 | 1 | 1001.3 |
| 20260902191544 | 59 | 15 | 0.0 | 4.0 | 0.00 | 0.00 | 0.00 | 1 | 1001.6 |
| 20260902191037 | 59 | 50 | 0.0 | 2.0 | 0.00 | 0.00 | 0.00 | 1 | 1001.7 |
| 20260902190538 | 59 | 81 | 0.0 | 3.0 | 0.00 | 0.00 | 0.00 | 1 | 1001.8 |
| 20260902190016 | 59 | 121 | 0.0 | 4.0 | 0.00 | 0.00 | 0.00 | 1 | 1001.9 |
| 20260902185515 | 59 | 94 | 0.0 | 4.0 | 0.00 | 0.00 | 0.00 | 1 | 1002.0 |
| 20260902185013 | 59 | 60 | 0.0 | 2.0 | 0.00 | 0.00 | 0.00 | 1 | 1002.1 |
| 20260902184516 | 59 | 86 | 0.0 | 4.0 | 0.00 | 0.00 | 0.00 | 1 | 1002.2 |
| 20260902184013 | 59 | 65 | 0.0 | 4.0 | 0.00 | 0.00 | 0.00 | 1 | 1002.3 |
| 20260902183509 | 59 | 127 | 0.0 | 4.0 | 0.00 | 0.00 | 0.00 | 1 | 1002.4 |
| 20260902183100 | 59 | 80 | 0.0 | 4.0 | 0.00 | 0.00 | 0.00 | 1 | 1002.4 |
| 20260902182550 | 59 | 57 | 0.0 | 2.0 | 0.00 | 0.00 | 0.00 | 1 | 1002.6 |
| 20260902182047 | 59 | 94 | 0.0 | 5.0 | 0.00 | 0.00 | 0.00 | 1 | 1002.7 |
| 20260902181548 | 59 | 124 | 1.0 | 5.0 | 0.00 | 0.00 | 0.00 | 1 | 1002.7 |
| 20260902181045 | 59 | 84 | 0.0 | 3.0 | 0.00 | 0.00 | 0.00 | 1 | 1002.7 |
| 20260902180542 | 59 | 77 | 0.0 | 3.0 | 0.00 | 0.00 | 0.00 | 1 | 1002.8 |
| 20260902180031 | 59 | 65 | 0.0 | 2.0 | 0.00 | 0.00 | 0.00 | 1 | 1002.9 |
| 20260902175522 | 59 | 70 | 0.0 | 2.0 | 0.00 | 0.00 | 0.00 | 1 | 1002.9 |
| 20260902175021 | 59 | 221 | 0.0 | 3.0 | 0.00 | 0.00 | 0.00 | 1 | 1003.0 |
| 20260902174521 | 59 | 215 | 0.0 | 4.0 | 0.00 | 0.00 | 0.00 | 1 | 1003.0 |
| 20260902174018 | 59 | 247 | 0.0 | 5.0 | 0.00 | 0.00 | 0.00 | 1 | 1003.1 |
| 20260902173516 | 59 | 82 | 0.0 | 6.0 | 0.00 | 0.00 | 0.00 | 1 | 1003.0 |
| 20260902173128 | 59 | 70 | 0.0 | 3.0 | 0.00 | 0.00 | 0.00 | 1 | 1003.1 |
| 20260902172556 | 59 | 82 | 0.0 | 3.0 | 0.00 | 0.00 | 0.00 | 1 | 1003.2 |
| 20260902172055 | 59 | 113 | 0.0 | 6.0 | 0.00 | 0.00 | 0.00 | 1 | 1003.1 |
| 20260902171602 | 59 | 82 | 0.0 | 4.0 | 0.00 | 0.00 | 0.00 | 1 | 1003.1 |
| 20260902171052 | 59 | 205 | 0.0 | 3.0 | 0.00 | 0.00 | 0.00 | 1 | 1003.2 |
| 20260902170551 | 59 | 86 | 0.0 | 2.0 | 0.00 | 0.00 | 0.00 | 1 | 1003.2 |
| 20260902170032 | 58 | 56 | 0.0 | 4.0 | 0.00 | 0.00 | 0.00 | 1 | 1003.3 |
| 20260902165534 | 58 | 239 | 0.0 | 7.0 | 0.00 | 0.00 | 0.00 | 1 | 1003.3 |
| 20260902165030 | 58 | 106 | 0.0 | 4.0 | 0.00 | 0.00 | 0.00 | 1 | 1003.3 |
| 20260902164529 | 58 | 58 | 0.0 | 3.0 | 0.00 | 0.00 | 0.00 | 1 | 1003.3 |
| 20260902164026 | 58 | 285 | 0.0 | 5.0 | 0.00 | 0.00 | 0.00 | 1 | 1003.3 |
| 20260902163524 | 58 | 82 | 0.0 | 5.0 | 0.00 | 0.00 | 0.00 | 1 | 1003.3 |
| 20260902163005 | 58 | 75 | 0.0 | 2.0 | 0.00 | 0.00 | 0.00 | 1 | 1003.3 |
| 20260902162508 | 58 | 98 | 0.0 | 4.0 | 0.00 | 0.00 | 0.00 | 1 | 1003.3 |
| 20260902162002 | 58 | 56 | 0.0 | 4.0 | 0.00 | 0.00 | 0.00 | 1 | 1003.3 |
| 20260902161501 | 58 | 71 | 0.0 | 4.0 | 0.00 | 0.00 | 0.00 | 1 | 1003.4 |
| 20260902161100 | 58 | 120 | 0.0 | 4.0 | 0.00 | 0.00 | 0.00 | 1 | 1003.4 |
| 20260902160558 | 58 | 66 | 0.0 | 3.0 | 0.00 | 0.00 | 0.00 | 1 | 1003.4 |
| 20260902160053 | 57 | 86 | 0.0 | 3.0 | 0.00 | 0.00 | 0.00 | 1 | 1003.4 |
| 20260902155537 | 57 | 75 | 0.0 | 4.0 | 0.00 | 0.00 | 0.00 | 1 | 1003.4 |
| 20260902155035 | 57 | 37 | 0.0 | 4.0 | 0.00 | 0.00 | 0.00 | 1 | 1003.5 |
| 20260902154543 | 57 | 64 | 0.0 | 6.0 | 0.00 | 0.00 | 0.00 | 1 | 1003.6 |
| 20260902154034 | 57 | 91 | 0.0 | 3.0 | 0.00 | 0.00 | 0.00 | 1 | 1003.6 |
| 20260902153531 | 58 | 321 | 1.0 | 4.0 | 0.00 | 0.00 | 0.00 | 1 | 1003.7 |
| 20260902153025 | 58 | 105 | 0.0 | 4.0 | 0.00 | 0.00 | 0.00 | 1 | 1003.8 |
| 20260902152511 | 58 | 108 | 0.0 | 4.0 | 0.00 | 0.00 | 0.00 | 1 | 1003.8 |
| 20260902152009 | 58 | 114 | 0.0 | 2.0 | 0.00 | 0.00 | 0.00 | 1 | 1003.8 |
| 20260902151508 | 58 | 98 | 0.0 | 4.0 | 0.00 | 0.00 | 0.00 | 1 | 1003.8 |
| 20260902151006 | 57 | 72 | 0.0 | 4.0 | 0.00 | 0.00 | 0.00 | 1 | 1003.9 |
| 20260902150505 | 57 | 342 | 0.0 | 3.0 | 0.00 | 0.00 | 0.00 | 1 | 1003.9 |
| 20260902150047 | 58 | 60 | 0.0 | 4.0 | 0.00 | 0.00 | 0.00 | 1 | 1004.0 |
| 20260902145544 | 58 | 56 | 0.0 | 4.0 | 0.00 | 0.00 | 0.00 | 1 | 1004.1 |
| 20260902145043 | 58 | 77 | 0.0 | 2.0 | 0.00 | 0.00 | 0.00 | 1004.1 | |
| 20260902144543 | 0 | 0.0 | 0.0 | 0.00 | 0.00 | 0.00 | 1004.2 | ||
| 20260902144041 | 0 | 0.0 | 0.0 | 0.00 | 0.00 | 0.00 | 1004.3 | ||
| 20260902143538 | 0 | 0.0 | 0.0 | 0.00 | 0.00 | 0.00 | 1004.4 | ||
| 20260902143020 | 0 | 0.0 | 0.0 | 0.00 | 0.00 | 0.00 | 1004.5 | ||
| 20260902142525 | 0 | 0.0 | 0.0 | 0.00 | 0.00 | 0.00 | 1004.5 | ||
| 20260902142017 | 0 | 0.0 | 0.0 | 0.00 | 0.00 | 0.00 | 1004.5 | ||
| 20260902141515 | 0 | 0.0 | 0.0 | 0.00 | 0.00 | 0.00 | 1004.6 | ||
| 20260902141014 | 0 | 0.0 | 0.0 | 0.00 | 0.00 | 0.00 | 1004.6 | ||
| 20260902140513 | 0 | 0.0 | 0.0 | 0.00 | 0.00 | 0.00 | 1004.7 | ||
| 20260902140112 | 0 | 0.0 | 0.0 | 0.00 | 0.00 | 0.00 | 1004.6 | ||
| 20260902135553 | 0 | 0.0 | 0.0 | 0.00 | 0.00 | 0.00 | 1004.8 | ||
| 20260902135051 | 0 | 0.0 | 0.0 | 0.00 | 0.00 | 0.00 | 1004.8 | ||
| 20260902134550 | 0 | 0.0 | 0.0 | 0.00 | 0.00 | 0.00 | 1004.8 | ||
| 20260902134048 | 0 | 0.0 | 0.0 | 0.00 | 0.00 | 0.00 | 1004.9 | ||
| 20260902133547 | 0 | 0.0 | 0.0 | 0.00 | 0.00 | 0.00 | 1004.8 | ||
| 20260902133054 | 0 | 0.0 | 0.0 | 0.00 | 0.00 | 0.00 | 1004.9 | ||
| 20260902132525 | 0 | 0.0 | 0.0 | 0.00 | 0.00 | 0.00 | 1005.0 | ||
| 20260902132020 | 0 | 0.0 | 0.0 | 0.00 | 0.00 | 0.00 | 1005.0 | ||
| 20260902131518 | 0 | 0.0 | 0.0 | 0.00 | 0.00 | 0.00 | 1005.1 | ||
| 20260902131020 | 0 | 0.0 | 0.0 | 0.00 | 0.00 | 0.00 | 1005.0 | ||
| 20260902130515 | 0 | 0.0 | 0.0 | 0.00 | 0.00 | 0.00 | 1005.0 | ||
| 20260902130013 | 0 | 0.0 | 0.0 | 0.00 | 0.00 | 0.00 | 1005.1 | ||
| 20260902125555 | 0 | 0.0 | 0.0 | 0.00 | 0.00 | 0.00 | 1005.2 | ||
| 20260902125053 | 0 | 0.0 | 0.0 | 0.00 | 0.00 | 0.00 | 1005.2 | ||
| 20260902124607 | 0 | 0.0 | 0.0 | 0.00 | 0.00 | 0.00 | 1005.4 | ||
| 20260902124052 | 0 | 0.0 | 0.0 | 0.00 | 0.00 | 0.00 | 1005.4 | ||
| 20260902123552 | 0 | 0.0 | 0.0 | 0.00 | 0.00 | 0.00 | 1005.5 | ||
| 20260902123120 | 0 | 0.0 | 0.0 | 0.00 | 0.00 | 0.00 | 1005.5 | ||
| 20260902122529 | 0 | 0.0 | 0.0 | 0.00 | 0.00 | 0.00 | 1005.6 | ||
| 20260902122028 | 0 | 0.0 | 0.0 | 0.00 | 0.00 | 0.00 | 1005.7 | ||
| 20260902121526 | 0 | 0.0 | 0.0 | 0.00 | 0.00 | 0.00 | 1005.8 | ||
| 20260902121024 | 0 | 0.0 | 0.0 | 0.00 | 0.00 | 0.00 | 1005.8 | ||
| 20260902120524 | 0 | 0.0 | 0.0 | 0.00 | 0.00 | 0.00 | 1005.9 | ||
| 20260902120025 | 0 | 0.0 | 0.0 | 0.00 | 0.00 | 0.00 | 1006.0 | ||
| 20260902115502 | 0 | 0.0 | 0.0 | 0.00 | 0.00 | 0.00 | 1006.0 | ||
| 20260902115002 | 0 | 0.0 | 0.0 | 0.00 | 0.00 | 0.00 | 1006.2 | ||
| 20260902114559 | 0 | 0.0 | 0.0 | 0.00 | 0.00 | 0.00 | 1006.2 | ||
| 20260902114059 | 0 | 0.0 | 0.0 | 0.00 | 0.00 | 0.00 | 1006.3 | ||
| 20260902113556 | 0 | 0.0 | 0.0 | 0.00 | 0.00 | 0.00 | 1006.3 | ||
| 20260902113055 | 0 | 0.0 | 0.0 | 0.00 | 0.00 | 0.00 | 1006.3 | ||
| 20260902112536 | 0 | 0.0 | 0.0 | 0.00 | 0.00 | 0.00 | 1006.4 | ||
| 20260902112036 | 0 | 0.0 | 0.0 | 0.00 | 0.00 | 0.00 | 1006.4 | ||
| 20260902111543 | 0 | 0.0 | 0.0 | 0.00 | 0.00 | 0.00 | 1006.4 | ||
| 20260902111031 | 0 | 0.0 | 0.0 | 0.00 | 0.00 | 0.00 | 1006.5 | ||
| 20260902110530 | 0 | 0.0 | 0.0 | 0.00 | 0.00 | 0.00 | 1006.5 | ||
| 20260902110029 | 0 | 0.0 | 0.0 | 0.00 | 0.00 | 0.00 | 1006.6 | ||
| 20260902105509 | 0 | 0.0 | 0.0 | 0.00 | 0.00 | 0.00 | 1006.6 | ||
| 20260902105008 | 0 | 0.0 | 0.0 | 0.00 | 0.00 | 0.00 | 1006.7 | ||
| 20260902104516 | 0 | 0.0 | 0.0 | 0.00 | 0.00 | 0.00 | 1006.6 | ||
| 20260902104007 | 0 | 0.0 | 0.0 | 0.00 | 0.00 | 0.00 | 1006.7 | ||
| 20260902103504 | 0 | 0.0 | 0.0 | 0.00 | 0.00 | 0.00 | 1006.6 | ||
| 20260902103003 | 0 | 0.0 | 0.0 | 0.00 | 0.00 | 0.00 | 1006.6 | ||
| 20260902102549 | 0 | 0.0 | 0.0 | 0.00 | 0.00 | 0.00 | 1006.7 | ||
| 20260902102049 | 0 | 0.0 | 0.0 | 0.00 | 0.00 | 0.00 | 1006.8 | ||
| 20260902101554 | 0 | 0.0 | 0.0 | 0.00 | 0.00 | 0.00 | 1006.7 | ||
| 20260902101045 | 0 | 0.0 | 0.0 | 0.00 | 0.00 | 0.00 | 1006.8 | ||
| 20260902100544 | 0 | 0.0 | 0.0 | 0.00 | 0.00 | 0.00 | 1006.9 | ||
| 20260902100043 | 0 | 0.0 | 0.0 | 0.00 | 0.00 | 0.00 | 1006.9 | ||
| 20260902095540 | 0 | 0.0 | 0.0 | 0.00 | 0.00 | 0.00 | 1006.9 | ||
| 20260902095043 | 0 | 0.0 | 0.0 | 0.00 | 0.00 | 0.00 | 1007.0 | ||
| 20260902094538 | 0 | 0.0 | 0.0 | 0.00 | 0.00 | 0.00 | 1007.1 | ||
| 20260902094037 | 0 | 0.0 | 0.0 | 0.00 | 0.00 | 0.00 | 1007.2 | ||
| 20260902093535 | 0 | 0.0 | 0.0 | 0.00 | 0.00 | 0.00 | 1007.1 | ||
| 20260902093033 | 0 | 0.0 | 0.0 | 0.00 | 0.00 | 0.00 | 1007.2 | ||
| 20260902092532 | 0 | 0.0 | 0.0 | 0.00 | 0.00 | 0.00 | 1007.1 | ||
| 20260902092032 | 0 | 0.0 | 0.0 | 0.00 | 0.00 | 0.00 | 1007.3 | ||
| 20260902091529 | 0 | 0.0 | 0.0 | 0.00 | 0.00 | 0.00 | 1007.3 | ||
| 20260902091032 | 0 | 0.0 | 0.0 | 0.00 | 0.00 | 0.00 | 1007.3 | ||
| 20260902090526 | 0 | 0.0 | 0.0 | 0.00 | 0.00 | 0.00 | 1007.3 | ||
| 20260902090034 | 0 | 0.0 | 0.0 | 0.00 | 0.00 | 0.00 | 1007.4 | ||
| 20260902085523 | 0 | 0.0 | 0.0 | 0.00 | 0.00 | 0.00 | 1007.5 | ||
| 20260902085022 | 0 | 0.0 | 0.0 | 0.00 | 0.00 | 0.00 | 1007.5 | ||
| 20260902084521 | 0 | 0.0 | 0.0 | 0.00 | 0.00 | 0.00 | 1007.6 | ||
| 20260902084019 | 0 | 0.0 | 0.0 | 0.00 | 0.00 | 0.00 | 1007.6 | ||
| 20260902083523 | 0 | 0.0 | 0.0 | 0.00 | 0.00 | 0.00 | 1007.6 | ||
| 20260902083016 | 0 | 0.0 | 0.0 | 0.00 | 0.00 | 0.00 | 1007.5 | ||
| 20260902082615 | 0 | 0.0 | 0.0 | 0.00 | 0.00 | 0.00 | 1007.7 | ||
| 20260902082058 | 0 | 0.0 | 0.0 | 0.00 | 0.00 | 0.00 | 1007.7 | ||
| 20260902081555 | 0 | 0.0 | 0.0 | 0.00 | 0.00 | 0.00 | 1007.7 | ||
| 20260902081053 | 0 | 0.0 | 0.0 | 0.00 | 0.00 | 0.00 | 1007.7 | ||
| 20260902080554 | 0 | 0.0 | 0.0 | 0.00 | 0.00 | 0.00 | 1007.8 | ||
| 20260902080053 | 0 | 0.0 | 0.0 | 0.00 | 0.00 | 0.00 | 1007.8 | ||
| 20260902075549 | 0 | 0.0 | 0.0 | 0.00 | 0.00 | 0.00 | 1007.9 | ||
| 20260902075030 | 0 | 0.0 | 0.0 | 0.00 | 0.00 | 0.00 | 1008.0 | ||
| 20260902074529 | 0 | 0.0 | 0.0 | 0.00 | 0.00 | 0.00 | 1007.9 | ||
| 20260902074028 | 0 | 0.0 | 0.0 | 0.00 | 0.00 | 0.00 | 1007.9 | ||
| 20260902073527 | 0 | 0.0 | 0.0 | 0.00 | 0.00 | 0.00 | 1007.9 | ||
| 20260902073033 | 0 | 0.0 | 0.0 | 0.00 | 0.00 | 0.00 | 1008.0 | ||
| 20260902072525 | 0 | 0.0 | 0.0 | 0.00 | 0.00 | 0.00 | 1008.0 | ||
| 20260902072004 | 0 | 0.0 | 0.0 | 0.00 | 0.00 | 0.00 | 1008.1 | ||
| 20260902071503 | 0 | 0.0 | 0.0 | 0.00 | 0.00 | 0.00 | 1008.1 | ||
| 20260902071001 | 0 | 0.0 | 0.0 | 0.00 | 0.00 | 0.00 | 1008.2 | ||
| 20260902070601 | 0 | 0.0 | 0.0 | 0.00 | 0.00 | 0.00 | 1008.2 | ||
| 20260902070101 | 0 | 0.0 | 0.0 | 0.00 | 0.00 | 0.00 | 1008.3 | ||
| 20260902065600 | 0 | 0.0 | 0.0 | 0.00 | 0.00 | 0.00 | 1008.4 | ||
| 20260902065038 | 0 | 0.0 | 0.0 | 0.00 | 0.00 | 0.00 | 1008.5 | ||
| 20260902064542 | 0 | 0.0 | 0.0 | 0.00 | 0.00 | 0.00 | 1008.5 | ||
| 20260902064034 | 0 | 0.0 | 0.0 | 0.00 | 0.00 | 0.00 | 1008.5 | ||
| 20260902063533 | 0 | 0.0 | 0.0 | 0.00 | 0.00 | 0.00 | 1008.6 | ||
| 20260902063035 | 0 | 0.0 | 0.0 | 0.00 | 0.00 | 0.00 | 1008.6 | ||
| 20260902062532 | 59 | 212 | 1.0 | 8.0 | 0.00 | 0.00 | 0.00 | 1 | 1008.6 |
| 20260902062012 | 59 | 212 | 1.0 | 8.0 | 0.00 | 0.00 | 0.00 | 1 | 1008.6 |
| 20260902061510 | 59 | 115 | 1.0 | 8.0 | 0.00 | 0.00 | 0.00 | 1 | 1008.7 |
| 20260902061011 | 59 | 233 | 1.0 | 7.0 | 0.00 | 0.00 | 0.00 | 1 | 1008.6 |
| 20260902060512 | 59 | 72 | 1.0 | 8.0 | 0.00 | 0.00 | 0.00 | 1 | 1008.7 |
| 20260902060007 | 59 | 243 | 2.0 | 8.0 | 0.00 | 0.00 | 0.00 | 1 | 1008.8 |
| 20260902055508 | 59 | 160 | 1.0 | 6.0 | 0.00 | 0.00 | 0.00 | 1 | 1008.7 |
| 20260902055048 | 59 | 61 | 3.0 | 6.0 | 0.00 | 0.00 | 0.00 | 1 | 1008.9 |
| 20260902054545 | 59 | 194 | 1.0 | 13.0 | 0.00 | 0.00 | 0.00 | 1 | 1008.9 |
| 20260902054043 | 59 | 193 | 1.0 | 13.0 | 0.00 | 0.00 | 0.00 | 1 | 1008.9 |
| 20260902053541 | 59 | 205 | 0.0 | 5.0 | 0.00 | 0.00 | 0.00 | 1 | 1008.9 |